TimePST,TemperatureF,Dew PointF,Humidity,Sea Level PressureIn,VisibilityMPH,Wind Direction,Wind SpeedMPH,Gust SpeedMPH,PrecipitationIn,Events,Conditions,WindDirDegrees,DateUTC
12:56 AM,28.0,24.1,85,30.07,10.0,Variable,5.8,-,N/A,,Overcast,0,2012-12-08 08:56:00
1:56 AM,27.0,21.9,81,30.08,10.0,Variable,5.8,-,N/A,,Overcast,0,2012-12-08 09:56:00
2:27 AM,26.6,21.2,80,30.00,10.0,Variable,3.5,-,N/A,,Overcast,0,2012-12-08 10:27:00
2:56 AM,27.0,21.9,81,30.09,10.0,Variable,3.5,-,N/A,,Overcast,0,2012-12-08 10:56:00
3:56 AM,27.0,21.0,78,30.09,10.0,Variable,3.5,-,N/A,,Overcast,0,2012-12-08 11:56:00
4:39 AM,26.6,21.2,80,30.02,4.0,Calm,Calm,-,0.00,Snow,Light Snow,0,2012-12-08 12:39:00
4:56 AM,27.0,21.9,81,30.09,9.0,Variable,4.6,-,0.00,,Overcast,0,2012-12-08 12:56:00
5:36 AM,26.6,23.0,86,30.03,7.0,Variable,3.5,-,0.00,Snow,Light Snow,0,2012-12-08 13:36:00
5:56 AM,27.0,23.0,85,30.10,4.0,Calm,Calm,-,0.00,Snow,Light Snow,0,2012-12-08 13:56:00
6:08 AM,26.6,23.0,86,30.03,3.0,Variable,4.6,-,0.00,Snow,Light Snow,0,2012-12-08 14:08:00
6:33 AM,26.6,23.0,86,30.03,5.0,Variable,4.6,-,0.01,Snow,Light Snow,0,2012-12-08 14:33:00
6:56 AM,27.0,23.0,85,30.11,5.0,West,5.8,-,0.01,Snow,Light Snow,280,2012-12-08 14:56:00
7:14 AM,26.6,24.8,93,30.03,2.5,Variable,5.8,-,0.01,Snow,Light Snow,0,2012-12-08 15:14:00
7:27 AM,26.6,23.0,86,30.03,5.0,West,6.9,-,0.01,Snow,Light Snow,270,2012-12-08 15:27:00
7:47 AM,26.6,23.0,86,30.04,1.5,Variable,6.9,-,0.01,Snow,Light Snow,0,2012-12-08 15:47:00
7:56 AM,27.0,23.0,85,30.13,0.8,Variable,3.5,-,0.02,Snow,Light Snow,0,2012-12-08 15:56:00
8:14 AM,26.6,24.8,93,30.05,0.2,Variable,3.5,-,0.01,Fog-Snow,Snow,0,2012-12-08 16:14:00
8:22 AM,26.6,24.8,93,30.05,0.2,Calm,Calm,-,0.03,Fog-Snow,Heavy Snow,0,2012-12-08 16:22:00
8:56 AM,27.0,24.1,89,30.14,0.5,Variable,3.5,-,0.07,Fog-Snow,Light Snow,0,2012-12-08 16:56:00
9:45 AM,26.6,24.8,93,30.08,0.2,Variable,3.5,-,0.05,Fog-Snow,Snow,0,2012-12-08 17:45:00
9:56 AM,27.0,25.0,92,30.17,0.2,West,5.8,-,0.06,Fog-Snow,Snow,280,2012-12-08 17:56:00
10:56 AM,27.0,25.0,92,30.15,0.2,Calm,Calm,-,0.09,Fog-Snow,Snow,0,2012-12-08 18:56:00
11:36 AM,26.6,26.6,100,30.07,0.2,Variable,3.5,-,0.06,Fog-Snow,Heavy Snow,0,2012-12-08 19:36:00
11:56 AM,28.0,26.1,92,30.16,0.2,Calm,Calm,-,0.10,Fog-Snow,Snow,0,2012-12-08 19:56:00
12:05 PM,28.4,26.6,93,30.07,0.2,Calm,Calm,-,0.01,Fog-Snow,Snow,0,2012-12-08 20:05:00
12:56 PM,28.0,26.1,92,30.15,0.5,Variable,3.5,-,0.07,Fog-Snow,Light Snow,0,2012-12-08 20:56:00
1:07 PM,28.4,26.6,93,30.06,1.0,West,4.6,-,0.00,Snow,Light Snow,280,2012-12-08 21:07:00
1:14 PM,28.4,26.6,93,30.06,0.5,Variable,3.5,-,0.01,Fog-Snow,Light Snow,0,2012-12-08 21:14:00
1:23 PM,28.4,26.6,93,30.07,0.8,Variable,3.5,-,0.02,Snow,Light Snow,0,2012-12-08 21:23:00
1:31 PM,28.4,26.6,93,30.06,1.2,Variable,4.6,-,0.02,Snow,Light Snow,0,2012-12-08 21:31:00
1:45 PM,28.4,26.6,93,30.06,0.8,Calm,Calm,-,0.04,Snow,Light Snow,0,2012-12-08 21:45:00
1:56 PM,28.9,26.1,89,30.15,0.8,Variable,4.6,-,0.06,Snow,Light Snow,0,2012-12-08 21:56:00
2:04 PM,28.4,26.6,93,30.06,1.0,Variable,4.6,-,0.00,Snow,Light Snow,0,2012-12-08 22:04:00
2:56 PM,28.9,26.1,89,30.16,1.0,Variable,3.5,-,0.01,Snow,Light Snow,0,2012-12-08 22:56:00
3:06 PM,28.4,26.6,93,30.08,3.0,Variable,5.8,-,0.00,Snow,Light Snow,0,2012-12-08 23:06:00
3:37 PM,28.4,24.8,86,30.09,10.0,Calm,Calm,-,0.00,,Overcast,0,2012-12-08 23:37:00
3:49 PM,28.4,24.8,86,30.09,7.0,Variable,3.5,-,0.01,Snow,Light Snow,0,2012-12-08 23:49:00
3:56 PM,28.0,25.0,88,30.18,8.0,Calm,Calm,-,0.01,Snow,Light Snow,0,2012-12-08 23:56:00
4:11 PM,28.4,26.6,93,30.10,8.0,Variable,3.5,-,0.00,Snow,Light Snow,0,2012-12-09 00:11:00
4:34 PM,28.4,26.6,93,30.09,1.8,Calm,Calm,-,0.00,Snow,Light Snow,0,2012-12-09 00:34:00
4:41 PM,28.4,26.6,93,30.10,2.0,Calm,Calm,-,0.00,Snow,Light Snow,0,2012-12-09 00:41:00
4:56 PM,28.0,26.1,92,30.19,1.8,Calm,Calm,-,0.00,Snow,Light Snow,0,2012-12-09 00:56:00
5:02 PM,28.4,26.6,93,30.10,3.0,Calm,Calm,-,0.00,Snow,Light Snow,0,2012-12-09 01:02:00
5:40 PM,26.6,24.8,93,30.12,5.0,Calm,Calm,-,0.00,Snow,Light Snow,0,2012-12-09 01:40:00
5:49 PM,26.6,24.8,93,30.11,6.0,Calm,Calm,-,0.00,Snow,Light Snow,0,2012-12-09 01:49:00
5:56 PM,27.0,25.0,92,30.21,7.0,Calm,Calm,-,0.00,Snow,Light Snow,0,2012-12-09 01:56:00
6:03 PM,26.6,24.8,93,30.11,9.0,Calm,Calm,-,0.00,,Overcast,0,2012-12-09 02:03:00
6:12 PM,26.6,24.8,93,30.11,4.0,Calm,Calm,-,0.00,Snow,Light Snow,0,2012-12-09 02:12:00
6:26 PM,26.6,24.8,93,30.11,6.0,Calm,Calm,-,0.00,Snow,Light Snow,0,2012-12-09 02:26:00
6:56 PM,26.1,24.1,92,30.23,9.0,Calm,Calm,-,0.00,,Overcast,0,2012-12-09 02:56:00
7:18 PM,26.6,24.8,93,30.13,7.0,Calm,Calm,-,0.00,Snow,Light Snow,0,2012-12-09 03:18:00
7:28 PM,26.6,24.8,93,30.14,7.0,Calm,Calm,-,0.00,Snow,Light Snow,0,2012-12-09 03:28:00
7:49 PM,26.6,24.8,93,30.15,1.8,Calm,Calm,-,0.01,Snow,Light Snow,0,2012-12-09 03:49:00
7:56 PM,26.1,24.1,92,30.25,1.0,Variable,3.5,-,0.01,Snow,Light Snow,0,2012-12-09 03:56:00
8:11 PM,26.6,23.0,86,30.16,2.0,Variable,3.5,-,0.00,Snow,Light Snow,0,2012-12-09 04:11:00
8:20 PM,26.6,23.0,86,30.16,1.8,Calm,Calm,-,0.01,Snow,Light Snow,0,2012-12-09 04:20:00
8:30 PM,26.6,23.0,86,30.16,0.8,Calm,Calm,-,0.01,Snow,Light Snow,0,2012-12-09 04:30:00
8:40 PM,24.8,23.0,93,30.16,2.0,Calm,Calm,-,0.01,Snow,Light Snow,0,2012-12-09 04:40:00
8:48 PM,24.8,23.0,93,30.15,9.0,Calm,Calm,-,0.01,,Overcast,0,2012-12-09 04:48:00
8:56 PM,26.1,21.9,84,30.25,5.0,Calm,Calm,-,0.01,Snow,Light Snow,0,2012-12-09 04:56:00
9:56 PM,24.1,23.0,96,30.28,10.0,Calm,Calm,-,0.00,,Mostly Cloudy,0,2012-12-09 05:56:00
10:56 PM,24.1,21.9,91,30.29,10.0,Calm,Calm,-,N/A,,Overcast,0,2012-12-09 06:56:00
11:56 PM,23.0,21.0,92,30.30,10.0,Calm,Calm,-,N/A,,Mostly Cloudy,0,2012-12-09 07:56:00